Location: Newark
(52.2090°N, 4.1550°W)
Time: 20:04:05
(UTC+00:00)

Explorer 7 - Pass Details

Date: 26 September 2019
Orbit: 485 x 680 km, 50.3° (Epoch: 17 October)

Event Time Altitude Azimuth Distance (km) Brightness Sun altitude
Rises 00:35:57 0° 274° (W) 2,876 - -38.5°
Reaches altitude 10° 00:38:13 10° 271° (W) 2,000 - -38.5°
Maximum altitude 00:42:47 64° 191° (S) 719 - -38.3°
Drops below altitude 10° 00:47:35 10° 110° (ESE) 2,091 - -38.2°
Sets 00:49:59 0° 108° (ESE) 3,018 - -38.1°
